This is the latest recevied weather packets stored in our database for station/object M0HPP-13. If no packets are shown the sender has not sent any weather packets the latest 10 day(s).
| Time | Temp. | Humidity | Pressure | Rain* | Wind** | Luminosity | Snow |
|---|---|---|---|---|---|---|---|
| 1788072486 | 12.22° C | 99% | 1004.6 hPa | 0.25 mm | - | 12 W/m² | - |
| 1788071886 | 12.22° C | 99% | 1004.7 hPa | 0 mm | - | 5 W/m² | - |
| 1788071286 | 12.22° C | 99% | 1004.6 hPa | 0 mm | - | 8 W/m² | - |
| 1788070686 | 12.22° C | 99% | 1004.6 hPa | 0 mm | - | 9 W/m² | - |
| 1788070086 | 12.22° C | 99% | 1004.6 hPa | 0 mm | - | 7 W/m² | - |
| 1788069486 | 12.22° C | 99% | 1004.6 hPa | 0 mm | - | 4 W/m² | - |
| 1788068886 | 12.22° C | 99% | 1004.6 hPa | 0 mm | - | 2 W/m² | - |
| 1788068286 | 11.67° C | 99% | 1004.5 hPa | 0 mm | - | 2 W/m² | - |
| 1788067686 | 11.67° C | 99% | 1004.5 hPa | 0 mm | - | 1 W/m² | - |
| 1788067086 | 11.67° C | 99% | 1004.4 hPa | 0 mm | - | 1 W/m² | - |
| 1788066486 | 11.67° C | 99% | 1004.5 hPa | 0 mm | - | 0 W/m² | - |
| 1788065886 | 11.67° C | 99% | 1004.5 hPa | 0 mm | - | 0 W/m² | - |
| 1788065286 | 11.67° C | 99% | 1004.5 hPa | 0 mm | - | 0 W/m² | - |
| 1788064686 | 11.67° C | 99% | 1004.5 hPa | 0 mm | - | 0 W/m² | - |
| 1788064086 | 11.67° C | 99% | 1004.6 hPa | 0 mm | - | 0 W/m² | - |
| 1788063486 | 12.22° C | 99% | 1004.7 hPa | 0 mm | - | 0 W/m² | - |
| 1788062886 | 12.22° C | 99% | 1004.7 hPa | 0 mm | - | 0 W/m² | - |
| 1788062286 | 12.22° C | 99% | 1004.8 hPa | 0 mm | - | 0 W/m² | - |
| 1788061686 | 11.67° C | 99% | 1004.8 hPa | 0 mm | - | 0 W/m² | - |
| 1788061086 | 11.67° C | 99% | 1004.6 hPa | 0 mm | - | 0 W/m² | - |
| 1788060486 | 11.67° C | 99% | 1004.7 hPa | 0 mm | - | 0 W/m² | - |
| 1788059886 | 11.67° C | 99% | 1004.8 hPa | 0 mm | - | 0 W/m² | - |
| 1788059286 | 11.67° C | 99% | 1004.7 hPa | 0 mm | - | 0 W/m² | - |
| 1788058686 | 11.67° C | 99% | 1004.6 hPa | 0 mm | - | 0 W/m² | - |
| 1788058086 | 11.67° C | 99% | 1004.8 hPa | 0 mm | - | 0 W/m² | - |
* Rain latest hour (hover to see other rain measurements)
** Current wind speed in m/s (hover to see current wind gust speed)